Regional Weather Roundup
Issued by NWS Little Rock, AR

Home | Current Version | Previous Version | Graphics & Text | Print | Product List | Glossary On
Versions: 1 2 3 4 5 6 7 8 9 10 11 12 13 14 15 16 17 18 19 20 21 22 23 24 25 26 27 28 29 30 31 32 33 34 35 36 37 38 39 40 41 42 43 44 45 46 47 48 49 50
000
ASUS44 KLZK 231305
RWRLZK

WEATHER ROUNDUP FOR ARKANSAS
NATIONAL WEATHER SERVICE LITTLE ROCK AR
700 AM CST SUN NOV 23 2014

NOTE: "FAIR" INDICATES FEW OR NO CLOUDS BELOW 12,000 FEET WITH NO
SIGNIFICANT WEATHER AND/OR OBSTRUCTIONS TO VISIBILITY.

ARZ001-003-010-029-231400-
NORTHWEST ARKANSAS

CITY           SKY/WX    TMP DP  RH WIND       PRES   REMARKS
FAYETTEVILLE   CLOUDY    57  54  89 S9        29.57F
FORT SMITH     CLOUDY    56  53  90 NE6       29.59S
HARRISON       CLOUDY    54  54 100 SE13      29.60F
BENTONVILLE    CLOUDY    57  52  82 S6        29.59S
ROGERS         CLOUDY    57  54  89 S9        29.58S
SILOAM SPGS    CLOUDY    57  52  82 S7        29.59R
HIGHFILL       CLOUDY    57  55  93 S9        29.57F
$$

ARZ004-005-016-231400-
NORTH CENTRAL ARKANSAS

CITY           SKY/WX    TMP DP  RH WIND       PRES   REMARKS
BATESVILLE     CLOUDY    57  55  94 SE9       29.67F
FLIPPIN        CLOUDY    54  50  87 E3        29.65F
MTN HOME       LGT RAIN  54  53  97 SE6       29.64F FOG
$$

ARZ040-041-231400-
WEST CENTRAL ARKANSAS

CITY           SKY/WX    TMP DP  RH WIND       PRES   REMARKS
MENA           CLOUDY    61  59  94 S5        29.60F
MOUNT IDA      CLOUDY    58  56  93 CALM      29.59F
$$

ARZ009-017-025-026-028-231400-
NORTHEAST ARKANSAS

CITY           SKY/WX    TMP DP  RH WIND       PRES   REMARKS
CORNING        LGT RAIN  54  54 100 SE7       29.72F
JONESBORO      CLOUDY    57  55  94 SE12      29.71F
NEWPORT        LGT RAIN  57  56  97 SE13      29.71F FOG
WALNUT RIDGE   CLOUDY    54  50  87 SE7       29.70F
BLYTHEVILLE    CLOUDY    66  55  67 SE10G21   29.75F
$$

ARZ022-023-033-042-044-231400-
CENTRAL ARKANSAS

CITY           SKY/WX    TMP DP  RH WIND       PRES   REMARKS
LITTLE ROCK    LGT RAIN  58  55  90 SE9       29.65F FOG
N LITTLE ROCK    N/A     56  56 100 S10G18    29.65F
JACKSONVILLE   LGT RAIN  58  57  99 SE10G18   29.65F
SEARCY         LGT RAIN  58  57  97 SE12      29.68F
HOT SPRINGS    LGT RAIN  59  57  93 S3        29.63F
RUSSELLVILLE   LGT RAIN  57  56  96 E5        29.62F FOG
CLINTON        LGT RAIN  54  54 100 CALM      29.67F VSB 3/4
$$

ARZ036-231400-
EAST ARKANSAS

CITY           SKY/WX    TMP DP  RH WIND       PRES   REMARKS
WEST MEMPHIS   CLOUDY    59  57  93 SE14      29.73F
$$

ARZ050-053-066-070-073-231400-
SOUTHWEST ARKANSAS

CITY           SKY/WX    TMP DP  RH WIND       PRES   REMARKS
ARKADELPHIA    LGT RAIN  59  59 100 S7        29.63F FOG
CAMDEN         LGT RAIN  59  57  94 NE6       29.64F
TEXARKANA      LGT RAIN  61  61 100 S3        29.61S
EL DORADO      LGT RAIN  60  59  96 SE12      29.63F
DE QUEEN       CLOUDY    59  58  96 CALM      29.59F
$$

ARZ056-057-069-231400-
SOUTHEAST ARKANSAS

CITY           SKY/WX    TMP DP  RH WIND       PRES   REMARKS
PINE BLUFF     LGT RAIN  57  55  93 SE13      29.67F
STUTTGART      CLOUDY    57  55  94 SE15      29.68F
MONTICELLO     LGT RAIN  59  57  93 SE6       29.67F

$$




USA.gov is the U.S. government's official web portal to all federal, state and local government web resources and services.